TimeMDT,TemperatureF,Dew PointF,Humidity,Sea Level PressureIn,VisibilityMPH,Wind Direction,Wind SpeedMPH,Gust SpeedMPH,PrecipitationIn,Events,Conditions,WindDirDegrees,DateUTC
12:53 AM,68.0,41.0,37,29.94,10.0,SE,9.2,-,N/A,,Clear,140,2013-06-30 06:53:00
1:53 AM,66.0,42.1,42,29.93,10.0,SE,8.1,-,N/A,,Clear,130,2013-06-30 07:53:00
2:53 AM,64.0,41.0,43,29.94,10.0,Calm,Calm,-,N/A,,Clear,0,2013-06-30 08:53:00
3:53 AM,60.1,41.0,49,29.95,10.0,ESE,5.8,-,N/A,,Clear,110,2013-06-30 09:53:00
4:53 AM,57.9,43.0,58,29.97,10.0,ENE,4.6,-,N/A,,Clear,60,2013-06-30 10:53:00
5:53 AM,57.9,41.0,53,30.00,10.0,Calm,Calm,-,N/A,,Clear,0,2013-06-30 11:53:00
6:53 AM,60.1,43.0,53,30.01,10.0,Calm,Calm,-,N/A,,Clear,0,2013-06-30 12:53:00
7:53 AM,64.9,48.0,54,30.01,10.0,Calm,Calm,-,N/A,,Clear,0,2013-06-30 13:53:00
8:53 AM,69.1,46.0,44,30.02,10.0,North,3.5,-,N/A,,Clear,10,2013-06-30 14:53:00
9:53 AM,73.0,44.1,35,30.01,10.0,SW,3.5,-,N/A,,Clear,220,2013-06-30 15:53:00
10:53 AM,79.0,46.0,31,29.97,10.0,North,4.6,-,N/A,,Clear,350,2013-06-30 16:53:00
11:53 AM,82.9,45.0,26,29.95,10.0,Variable,3.5,-,N/A,,Clear,0,2013-06-30 17:53:00
12:53 PM,84.9,44.1,24,29.92,10.0,Calm,Calm,-,N/A,,Clear,0,2013-06-30 18:53:00
1:53 PM,88.0,42.1,20,29.89,10.0,NW,4.6,-,N/A,,Scattered Clouds,310,2013-06-30 19:53:00
2:53 PM,93.0,39.0,15,29.86,10.0,NNW,10.4,-,N/A,,Clear,340,2013-06-30 20:53:00
3:53 PM,93.0,39.0,15,29.85,10.0,North,6.9,23.0,N/A,,Partly Cloudy,350,2013-06-30 21:53:00
4:53 PM,91.9,39.0,16,29.84,10.0,NNW,6.9,20.7,N/A,,Clear,340,2013-06-30 22:53:00
5:53 PM,91.9,39.9,16,29.84,10.0,North,13.8,21.9,N/A,,Clear,360,2013-06-30 23:53:00
6:53 PM,91.0,42.1,18,29.82,10.0,North,9.2,-,N/A,,Clear,10,2013-07-01 00:53:00
7:53 PM,89.1,39.0,17,29.82,10.0,North,6.9,-,N/A,,Clear,10,2013-07-01 01:53:00
8:53 PM,82.9,39.9,22,29.85,10.0,ESE,8.1,-,N/A,,Clear,110,2013-07-01 02:53:00
9:53 PM,77.0,39.9,26,29.90,10.0,ESE,3.5,-,N/A,,Clear,120,2013-07-01 03:53:00
10:53 PM,75.9,39.9,27,29.91,10.0,SE,5.8,-,N/A,,Clear,130,2013-07-01 04:53:00
11:53 PM,73.0,41.0,31,29.94,10.0,SSE,5.8,-,N/A,,Clear,150,2013-07-01 05:53:00